This is the latest recevied weather packets stored in our database for station/object SALIDA. If no packets are shown the sender has not sent any weather packets the latest 10 day(s).
| Time | Temp. | Humidity | Pressure | Rain* | Wind** | Luminosity | Snow |
|---|---|---|---|---|---|---|---|
| 1777716993 | -1.67° C | 82% | 1019.2 hPa | 0 mm | - | - | - |
| 1777716093 | -1.67° C | 82% | 1019.1 hPa | 0 mm | - | - | - |
| 1777715193 | -1.67° C | 82% | 1019.1 hPa | 0 mm | - | - | - |
| 1777714293 | -1.11° C | 81% | 1019.1 hPa | 0 mm | - | - | - |
| 1777713393 | -1.11° C | 80% | 1019 hPa | 0 mm | - | - | - |
| 1777712493 | -0.56° C | 80% | 1018.8 hPa | 0 mm | - | - | - |
| 1777711593 | -0.56° C | 80% | 1018.7 hPa | 0 mm | - | - | - |
| 1777710693 | 0° C | 79% | 1018.4 hPa | 0 mm | - | - | - |
| 1777709793 | 0° C | 79% | 1018.4 hPa | 0 mm | - | - | - |
| 1777708893 | 0.56° C | 77% | 1018.5 hPa | 0 mm | - | - | - |
| 1777707993 | 1.11° C | 76% | 1018.4 hPa | 0 mm | - | - | - |
| 1777707093 | 1.67° C | 74% | 1018.3 hPa | 0 mm | - | - | - |
| 1777706193 | 2.22° C | 72% | 1018.3 hPa | 0 mm | - | - | - |
| 1777705293 | 2.22° C | 71% | 1018.3 hPa | 0 mm | - | - | - |
| 1777704393 | 2.78° C | 69% | 1018.2 hPa | 0 mm | - | - | - |
| 1777703493 | 3.33° C | 69% | 1018.2 hPa | 0 mm | - | - | - |
| 1777702593 | 3.33° C | 67% | 1018.2 hPa | 0 mm | - | - | - |
| 1777701693 | 3.89° C | 66% | 1018.1 hPa | 0 mm | - | - | - |
| 1777700793 | 4.44° C | 65% | 1018.1 hPa | 0 mm | - | - | - |
| 1777699893 | 5° C | 62% | 1017.9 hPa | 0 mm | - | - | - |
| 1777698993 | 5.56° C | 60% | 1017.9 hPa | 0 mm | - | - | - |
| 1777698093 | 6.67° C | 57% | 1017.9 hPa | 0 mm | - | - | - |
| 1777697193 | 6.67° C | 56% | 1018 hPa | 0 mm | - | - | - |
| 1777696293 | 7.22° C | 55% | 1017.9 hPa | 0 mm | - | - | - |
| 1777695393 | 7.78° C | 54% | 1018 hPa | 0 mm | - | - | - |
* Rain latest hour (hover to see other rain measurements)
** Current wind speed in m/s (hover to see current wind gust speed)